Location: Bucharest
(44.4268°N, 26.1025°E)
Time: 07:14:57
(UTC+03:00)

CUBESAT XI-V - Pass Details

Date: 06 July 2022
Orbit: 668 x 690 km, 98.1° (Epoch: 13 August)

Event Time Altitude Azimuth Distance (km) Brightness Sun altitude
Exits shadow 02:24:01 22° 128° (SE) 1,446 ? -21.3°
Maximum altitude 02:26:30 42° 70° (ENE) 961 ? -21.2°
Drops below altitude 10° 02:30:49 10° 0° (N) 2,106 ? -21.0°
Sets 02:33:08 0° 354° (N) 3,023 ? -20.8°
